FGRST (GLAST)

Last updated on Thu Jul 03 2025 00:02:38 GMT+0000 (Coordinated Universal Time)

1 33053U 08029A 25183.46787880 .00002445 00000+0 92222-4 0 9995 2 33053 25.5817 107.8550 0008750 165.8155 194.2629 15.21215448942473
UTC large
Height (km)
Speed (km/s)
/
Latitude / Longitude
Inclination (degrees)
Orbital Period (minutes)
Azimuth
Elevation
Range (km)
Doppler Factor

Next 0 passes for location: London (51.5072 / 0.1276)

Sorry there are no passes over London.